Regional Weather Roundup
Issued by NWS Jackson, KY

Home | Current Version | Previous Version | Graphics & Text | Print | Product List | Glossary On
Versions: 1 2 3 4 5 6 7 8 9 10 11 12 13 14 15 16 17 18 19 20 21 22 23 24 25 26 27 28 29 30 31 32 33 34 35 36 37 38 39 40 41 42 43 44 45 46 47 48 49 50
368
ASUS43 KJKL 101310
RWRJKL

EAST KENTUCKY HOURLY WEATHER ROUNDUP
NATIONAL WEATHER SERVICE JACKSON KY
800 AM EST WED FEB 10 2016

NOTE: "FAIR" INDICATES FEW OR NO CLOUDS BELOW 12,000 FEET WITH
NO SIGNIFICANT WEATHER AND/OR OBSTRUCTIONS TO VISIBILITY.

* THESE REPORTS ARE NOT UNDER NWS QUALITY CONTROL AND MAY NOT
  REPORT WEATHER SUCH AS PRECIPITATION AND FOG.

KYZ079-080-083-085-087-088-110-112-115-119-120-101400
...EASTERN KENTUCKY...

CITY           SKY/WX    TMP DP  RH WIND       PRES   REMARKS
SOMERSET*      CLOUDY    18  10  73 W10       30.07R WCI   6
MONTICELLO*    LGT SNOW  18  12  79 W12       30.07R FOG     WCI   5
WILLIAMSBURG*  CLOUDY    16  14  93 MISG      30.02S
MIDDLESBORO*   CLOUDY    18  10  69 CALM      30.02S
HARLAN APT*    CLOUDY    18  10  73 SW5       29.97R WCI  11
BLACK MTN*       N/A      5   3  92 CALM        N/A
BIG SANDY*     CLOUDY    18  11  76 W5        29.96R WCI  11
$$

KYZ035-036-041-042-044-050-067-078-099-101400
...CENTRAL KENTUCKY...

CITY           SKY/WX    TMP DP  RH WIND       PRES   REMARKS
MT STERLING*   FLURRIES  18  12  79 W9        30.00R WCI   6
DANVILLE*      LGT SNOW  18  12  79 NW6       30.03R WCI   9
RICHMOND*      CLOUDY    16  10  79 W10       30.00R WCI   3
LEXINGTON      LGT SNOW  16  11  80 W7        30.00R WCI   6
FRANKFORT      LGT SNOW  16   9  74 W9        30.01R WCI   4
$$

KYZ091>093-OHZ055-061-077-WVZ005-015-034-035-042-101400
...SOUTHERN OHIO/WEST VIRGINIA...

CITY           SKY/WX    TMP DP  RH WIND       PRES   REMARKS
COVINGTON      CLOUDY    16   7  67 W20       29.97R WCI  -1
PINEVILLE*       N/A     19   9  66 MISG      29.94R
$$

VAZ002-007-008-TNZ017-027-036-066-071-101400
...SOUTHWEST VIRGINIA/EAST TENNESSEE...

CITY           SKY/WX    TMP DP  RH WIND       PRES   REMARKS
$$

...KEY TO REMARKS...
VSB - VISIBILITY IN MILES
WCI - WIND CHILL INDEX
HX  - HEAT INDEX

$$




USA.gov is the U.S. government's official web portal to all federal, state and local government web resources and services.